Theta_e
288 288 288 288 288 288 287 287 287 287 287 287 287 287 287 287 287 286 286 286 286 286 286 287 287 287 287 287 287 287 287 287 288 288 288 289 289 289 288 288 288 288 288 289 289 290 290 290 290 290 290 289 289 289 289 289 289 289 289 289 289 289 289 289 290 290 291 292 292 292 292 293 293 293 293 293 294 294 294 294 294 294 295 295 295 295
288 288 288 288 288 287 287 287 287 287 287 287 287 287 287 287 286 286 286 286 286 287 287 287 287 287 287 287 287 287 287 287 287 287 288 288 288 288 287 288 288 288 288 289 289 290 290 289 289 289 289 288 288 288 288 288 288 289 289 289 289 288 289 289 289 290 290 291 291 291 291 292 292 293 293 293 294 294 294 294 294 294 295 295 295 295
288 288 288 287 287 287 287 287 287 287 287 287 287 287 286 286 286 286 286 287 287 287 287 287 287 287 287 287 287 287 287 287 287 287 287 287 287 287 287 287 288 288 288 288 288 289 288 288 288 288 288 288 288 288 288 288 288 288 288 288 288 288 289 289 289 290 290 290 290 291 291 292 292 292 293 293 293 293 293 293 293 294 295 295 295 295
288 288 287 287 287 287 287 287 287 287 287 287 286 286 286 286 286 287 287 287 287 286 286 286 286 286 286 286 286 286 286 286 286 287 287 286 287 287 287 287 287 287 287 287 287 287 287 287 287 287 288 288 288 288 288 288 288 288 288 288 288 288 289 289 289 289 290 290 290 291 291 292 292 292 292 293 292 292 292 292 293 294 294 295 295 295
288 287 287 287 287 287 287 287 286 286 286 286 286 286 286 287 287 286 286 286 286 286 286 286 286 286 286 286 286 286 286 286 286 286 286 286 286 286 286 286 286 286 286 287 287 287 287 287 287 287 287 287 287 287 287 287 287 287 288 288 288 288 289 289 289 290 290 290 291 291 291 292 292 292 292 292 292 292 292 292 293 294 294 294 294 294
287 287 287 286 286 286 286 286 286 286 286 286 286 287 287 286 286 286 285 285 285 285 285 285 285 285 285 285 285 285 285 285 285 285 285 285 285 285 285 285 285 286 286 286 286 286 286 287 287 287 287 287 287 287 287 287 287 287 287 287 288 288 288 289 289 290 290 290 291 291 291 291 291 291 291 292 292 292 292 293 293 293 294 293 293 294
287 286 286 286 286 286 286 286 286 286 286 287 287 287 286 286 285 285 285 284 284 284 284 284 284 284 284 284 284 284 284 284 284 284 284 284 284 284 285 285 285 285 285 285 286 286 286 286 287 287 287 287 287 287 287 287 287 287 287 287 288 288 288 289 289 289 289 290 290 290 290 290 290 290 291 291 291 291 292 292 292 292 293 292 293 293
286 286 286 286 286 286 286 286 286 286 287 287 286 286 285 285 285 284 284 284 284 284 284 284 284 284 284 284 283 283 283 283 283 283 283 284 284 284 284 284 285 285 285 285 285 285 286 286 286 286 286 286 286 286 286 286 286 287 287 287 287 287 288 288 288 288 289 289 289 289 289 290 290 290 290 291 291 291 291 291 291 291 291 292 293 293
286 285 285 286 286 286 286 286 287 287 287 286 286 285 285 284 284 284 284 284 284 284 283 283 283 283 283 283 283 283 283 283 283 283 283 283 284 284 284 284 284 284 284 285 285 285 285 286 286 286 286 286 286 286 286 286 286 286 286 286 287 287 287 287 288 288 288 288 289 289 289 289 290 290 290 290 291 291 291 290 290 290 291 292 293 293
285 286 286 286 286 286 287 287 287 286 286 285 285 285 284 284 284 284 284 284 283 283 283 283 283 283 283 283 283 283 283 283 283 283 283 283 284 284 284 284 284 284 284 284 285 285 285 285 285 285 285 285 285 285 285 285 285 285 286 286 286 286 287 287 287 288 288 288 289 289 289 289 290 290 290 290 290 290 290 290 290 290 291 292 293 293
286 286 286 286 287 287 287 286 286 285 285 285 285 284 284 284 284 284 284 283 283 283 283 283 283 283 283 283 283 283 283 283 283 283 283 283 283 283 284 284 284 284 284 284 284 285 285 285 285 285 285 285 285 285 284 284 284 285 285 286 286 286 287 287 287 288 288 288 288 289 289 289 289 290 290 290 290 290 290 290 290 291 291 292 292 293
286 286 287 287 287 287 286 285 285 285 285 285 284 284 284 284 284 283 283 283 283 283 283 282 282 282 283 283 283 283 283 283 283 283 283 283 283 283 283 283 284 284 284 284 284 284 284 284 284 284 284 284 284 284 284 284 284 284 285 285 286 286 286 287 287 287 288 288 288 289 289 289 289 289 289 290 290 290 290 291 291 291 292 292 292 292
286 287 288 288 287 286 285 285 285 285 284 284 284 284 284 284 283 283 283 283 283 282 282 282 282 282 283 283 283 283 283 283 283 283 283 283 283 283 284 284 284 284 284 284 284 283 283 283 283 283 283 283 283 283 283 284 284 284 285 285 285 286 286 286 287 287 287 288 288 289 289 289 289 289 289 290 290 290 291 291 291 291 292 292 292 292
286 287 287 287 286 286 285 285 284 284 284 284 284 284 283 283 283 283 282 282 282 282 282 283 283 283 283 283 283 283 283 283 284 284 284 284 284 284 284 284 284 284 283 283 283 283 283 283 283 283 283 283 283 283 283 284 284 284 285 285 286 286 286 287 287 287 288 288 288 289 289 289 289 289 289 289 290 290 291 291 291 291 291 292 292 292
287 287 287 286 285 285 285 284 284 284 284 284 283 283 283 283 282 282 282 282 282 282 283 283 283 283 283 283 283 283 284 284 284 284 284 284 284 284 284 284 283 283 283 283 282 282 282 282 282 282 282 283 283 283 283 284 284 285 285 285 286 286 286 287 287 288 288 289 289 289 289 289 289 289 289 289 289 290 290 290 290 291 291 291 291 291
287 286 286 285 285 284 284 284 284 284 283 283 283 282 282 282 282 282 282 282 283 283 283 283 283 283 283 283 283 284 284 284 284 284 284 284 283 283 283 283 283 283 282 282 282 282 282 282 282 282 282 283 283 283 283 284 284 285 285 286 286 286 287 287 288 288 288 289 289 289 288 288 288 289 289 289 289 290 290 290 290 290 291 291 291 291
286 285 285 284 284 284 284 284 283 283 283 282 282 282 282 282 282 282 283 283 283 283 283 283 284 284 284 284 284 284 284 284 283 283 283 283 283 283 283 283 282 282 282 282 282 282 282 282 282 282 282 283 283 283 284 284 285 285 285 286 286 287 287 288 288 288 288 288 288 288 288 288 288 288 288 289 289 289 289 290 290 290 290 290 290 291
285 284 284 284 284 284 283 283 283 282 282 282 282 282 282 282 283 283 283 283 283 283 284 284 284 284 284 284 284 283 283 283 283 283 283 283 283 282 282 282 282 282 282 282 282 282 282 282 282 282 282 283 283 283 284 284 285 285 286 286 287 287 287 287 287 287 287 287 288 288 288 288 288 288 288 288 289 289 289 289 289 290 290 290 290 290
284 284 284 283 283 283 283 282 282 282 282 282 282 282 283 283 283 283 284 284 284 284 284 283 283 283 283 283 283 282 282 282 282 283 283 283 283 282 282 282 282 282 282 282 282 282 282 282 282 282 282 283 283 284 284 285 285 286 286 286 286 286 286 286 286 287 287 287 287 287 288 288 288 288 288 288 289 289 289 289 290 290 290 290 290 290
283 283 283 283 283 282 282 282 282 282 282 283 283 283 283 283 284 284 284 284 283 283 283 283 283 282 282 282 282 282 282 282 283 283 283 282 282 282 282 282 281 281 281 281 282 282 282 282 282 282 283 283 284 284 285 285 285 285 285 285 285 285 286 286 286 287 287 287 287 287 287 288 288 288 288 288 289 289 289 289 290 290 290 290 290 290
283 283 283 282 282 282 282 282 282 283 283 283 284 284 284 284 284 283 283 282 282 282 282 282 282 282 282 282 282 282 282 283 283 283 282 282 281 281 281 281 281 281 281 281 281 281 282 282 282 283 283 284 284 285 285 284 284 284 284 285 285 285 285 286 286 286 286 287 287 287 287 288 288 288 288 289 289 289 289 289 289 289 290 290 290 290
282 282 282 282 282 282 282 283 283 284 284 284 284 284 284 283 283 282 282 282 282 282 282 282 282 282 282 282 282 282 282 283 282 282 281 281 281 281 281 281 281 281 281 281 281 281 282 282 283 283 284 284 284 283 283 283 283 284 284 284 285 285 285 285 286 286 286 286 287 287 287 287 288 288 288 288 289 289 289 289 289 289 290 290 290 290
282 282 282 282 283 283 283 284 284 284 284 284 284 283 283 282 282 282 282 282 282 282 282 282 282 282 282 282 282 282 282 282 281 281 281 281 281 281 281 281 281 281 281 281 282 282 282 283 283 284 284 283 283 282 282 283 283 283 284 284 284 285 285 285 286 286 286 286 286 287 287 287 287 288 288 288 288 288 289 289 289 289 289 289 289 289
283 283 283 283 284 284 284 284 284 284 283 283 283 282 282 282 282 282 282 282 282 282 282 282 282 282 282 282 282 282 282 281 281 281 281 281 281 281 281 281 281 281 281 282 282 282 283 283 283 283 282 282 282 282 282 283 283 283 283 284 284 285 285 285 285 285 286 286 286 286 286 287 287 288 288 288 288 289 289 289 289 289 289 289 289 289
283 283 284 284 284 284 284 284 283 283 283 282 282 282 282 282 282 282 282 282 281 281 282 282 282 282 282 282 282 281 281 281 281 281 281 281 281 281 281 281 281 282 282 282 282 283 283 283 282 282 282 282 282 282 282 283 283 283 283 284 284 285 285 285 285 285 285 286 286 286 286 287 287 288 288 288 288 288 288 288 288 288 288 288 288 289
283 283 283 283 283 283 283 283 282 282 282 282 282 282 282 282 282 281 281 281 281 282 282 282 282 282 282 281 281 281 281 281 281 281 281 281 281 281 281 281 282 282 282 282 282 282 282 282 282 282 282 282 282 282 283 283 283 283 283 284 284 285 285 285 285 285 285 286 286 286 286 287 287 288 288 288 288 287 287 287 287 287 288 288 288 288
283 283 283 282 282 282 282 281 281 282 282 282 282 282 282 282 281 281 281 281 281 282 282 282 282 282 281 281 281 281 281 281 281 281 281 281 281 281 281 282 282 282 282 282 282 282 282 282 282 282 282 282 282 283 283 283 283 283 284 284 284 285 285 285 285 285 285 285 286 286 286 287 287 287 287 287 287 287 287 287 287 287 288 288 288 288
282 282 282 281 281 281 281 281 281 281 281 281 281 281 281 281 281 281 281 281 281 281 281 281 281 281 281 281 281 281 281 281 281 281 281 281 281 281 282 282 282 282 282 282 282 282 282 282 282 282 282 283 283 283 283 283 283 283 284 284 284 284 285 285 285 285 285 285 285 286 286 286 286 287 286 286 287 287 287 287 288 288 288 288 288 288
282 281 281 281 281 281 281 281 281 281 281 281 281 281 281 281 281 281 281 281 281 281 281 281 281 281 281 281 281 281 281 281 281 281 281 281 281 281 281 281 281 281 282 282 282 282 282 282 282 283 283 283 283 283 283 283 283 283 283 284 284 284 284 284 284 285 285 285 285 286 286 286 286 286 286 287 287 287 287 287 288 288 288 288 289 289
281 281 281 281 281 281 281 281 281 281 281 281 281 281 281 281 281 281 281 281 281 281 281 281 281 281 281 281 281 281 281 281 281 281 281 281 281 281 281 281 281 281 282 282 282 282 282 282 282 283 283 283 283 283 283 283 283 283 283 283 284 284 284 284 284 285 285 285 285 285 286 286 286 286 286 286 287 287 286 287 287 287 287 287 288 288
281 281 281 281 281 281 281 281 281 281 281 281 281 281 281 281 281 281 281 281 281 281 281 281 281 281 281 281 281 281 281 281 281 281 281 281 281 281 281 281 281 281 282 282 282 282 282 282 282 283 283 283 283 283 283 283 283 283 283 283 284 284 284 284 284 284 285 285 285 285 285 285 285 285 285 285 285 285 285 285 286 286 286 286 287 287
280 280 280 280 280 281 281 281 281 281 281 281 281 281 281 281 281 281 281 281 281 281 281 281 281 281 281 281 281 281 281 281 281 281 281 281 281 281 281 281 281 282 282 282 282 282 282 282 282 282 282 283 283 283 283 283 283 283 284 284 284 284 284 284 284 284 284 284 284 284 284 284 284 284 284 284 284 285 285 285 285 286 286 286 286 286
280 280 280 280 281 281 281 281 281 281 281 281 281 281 281 281 281 281 281 281 281 281 281 281 281 281 280 280 281 281 281 281 281 281 281 281 281 281 281 281 281 282 282 282 282 282 282 282 282 282 282 282 283 283 283 283 283 284 284 284 284 284 284 283 283 283 284 283 283 283 283 284 284 284 285 285 285 285 286 286 286 286 286 286 286 286
280 280 281 281 281 281 281 281 281 281 281 281 281 281 281 281 281 280 280 280 280 280 280 280 280 280 280 280 280 281 281 281 281 281 281 281 281 281 281 281 282 282 282 282 282 282 282 282 282 282 283 283 283 283 283 283 284 284 284 283 283 283 283 283 283 283 283 283 283 283 284 284 285 285 286 286 287 287 287 287 287 287 287 287 287 287
280 281 281 281 281 281 281 281 281 281 281 281 281 281 281 280 280 280 280 280 280 280 280 280 280 280 280 280 280 280 280 280 281 281 281 281 281 281 281 281 281 281 282 282 282 282 282 282 282 283 283 283 283 283 283 283 283 283 283 283 283 283 283 283 283 283 283 283 283 284 284 285 286 286 287 287 288 288 288 288 288 288 288 288 288 287
281 281 281 281 281 281 281 281 281 281 281 280 280 280 280 280 280 280 280 280 280 280 280 280 280 280 280 280 280 280 280 280 281 281 281 281 281 281 281 281 281 281 281 282 282 282 282 282 282 283 283 283 283 283 283 283 283 283 282 282 282 282 283 283 283 283 283 284 284 285 285 286 286 287 288 288 288 289 289 289 289 289 289 288 288 288
281 281 281 281 281 281 281 281 281 280 280 280 280 280 280 280 280 280 280 280 280 280 280 280 280 280 280 280 280 280 280 281 281 281 281 281 281 281 281 281 281 281 282 282 282 282 282 282 282 283 283 283 283 283 283 282 282 282 282 282 282 282 283 283 284 284 284 284 285 286 286 286 287 287 288 289 289 289 289 290 290 290 290 289 289 289
281 281 281 281 281 281 280 280 280 280 280 280 280 280 280 280 280 280 280 280 280 280 280 280 280 280 280 280 280 280 281 281 281 281 281 281 281 281 281 281 281 282 282 282 282 282 282 282 283 283 283 283 283 282 282 282 282 282 282 282 283 283 283 284 284 285 285 285 285 286 287 287 287 288 289 289 290 290 290 291 291 291 291 291 291 290
281 281 281 281 280 280 280 280 280 280 280 280 280 280 280 280 280 280 280 280 280 280 280 280 280 280 280 280 281 281 281 281 281 281 281 281 281 281 281 281 282 282 282 282 282 282 282 282 283 283 283 282 282 281 281 281 281 282 282 283 283 284 284 285 285 285 285 286 286 287 287 288 289 289 289 290 290 291 291 291 291 291 292 292 292 292
281 281 280 280 280 280 280 280 280 280 280 280 280 280 280 280 280 280 280 280 280 280 280 280 280 280 280 280 280 281 281 281 281 281 281 281 281 282 282 282 282 282 282 282 282 282 282 282 282 282 282 281 281 281 281 281 281 282 282 282 283 284 285 285 286 286 286 286 287 287 288 289 290 290 290 290 291 291 291 291 292 292 292 292 292 292
280 280 280 280 280 280 280 280 280 280 280 280 280 280 280 280 280 280 280 280 280 280 280 280 280 280 280 280 281 281 281 281 281 281 281 281 281 282 282 282 282 282 282 281 281 282 282 282 281 281 281 280 280 280 281 281 282 283 282 282 283 284 285 286 287 287 287 287 288 288 289 290 290 291 291 291 292 292 292 292 293 293 293 293 293 293
280 280 280 280 280 280 280 280 280 280 280 280 280 280 280 280 280 280 280 280 280 280 280 280 280 280 280 280 280 281 281 281 281 281 281 281 282 282 282 282 281 281 281 281 281 281 281 280 280 280 280 280 280 280 281 282 283 283 283 283 283 284 285 287 288 288 288 288 289 290 290 291 291 292 292 293 293 293 293 293 294 294 294 294 295 295
280 279 280 280 280 280 280 280 280 280 280 280 280 280 280 280 280 280 280 280 280 280 280 280 280 280 280 280 281 281 281 281 281 281 281 281 281 281 281 281 280 280 280 280 280 280 280 280 280 280 281 281 281 281 281 283 284 284 284 284 284 283 284 286 288 289 289 290 291 291 292 292 292 293 293 293 293 294 294 294 294 294 295 295 295 295
279 279 280 280 280 280 280 280 280 280 280 280 280 280 280 280 280 280 280 280 280 280 280 280 280 280 280 280 281 281 281 281 281 281 281 281 281 281 281 280 280 280 280 280 280 280 280 281 281 282 282 282 282 282 283 283 284 284 284 284 284 284 284 286 288 289 290 291 292 292 293 293 293 293 293 294 294 294 294 294 295 295 295 296 296 296
279 280 280 280 280 280 280 280 280 280 280 280 280 280 280 280 280 280 280 280 280 280 280 280 280 280 280 281 281 281 281 281 281 281 281 281 281 281 280 280 280 280 280 280 280 280 280 281 282 283 283 283 283 283 284 284 284 284 284 285 285 285 286 287 288 289 290 291 292 293 293 293 293 293 294 294 294 294 294 295 295 296 296 297 297 297
279 279 279 280 280 280 280 280 280 280 280 280 280 280 280 280 280 280 280 280 280 280 280 280 280 280 280 281 281 281 281 281 281 281 281 281 281 281 281 281 281 280 281 281 281 281 281 282 282 283 283 283 284 284 284 284 284 284 285 285 286 287 288 289 290 290 291 291 292 293 293 293 293 293 294 294 294 294 295 295 296 296 297 298 298 298
279 279 279 279 279 279 279 280 280 280 280 280 280 280 280 280 280 280 280 280 280 280 280 280 280 280 280 281 281 281 281 281 281 281 281 281 281 281 281 281 281 281 281 281 282 282 282 283 283 283 283 283 284 285 285 285 285 285 285 286 287 288 289 290 290 291 292 292 292 293 293 293 293 293 294 294 294 294 295 295 296 297 298 299 299 299
279 279 279 279 279 279 279 280 280 280 280 280 280 280 280 280 280 280 280 280 280 280 280 280 280 281 281 281 281 281 281 281 281 281 281 281 281 282 281 282 282 282 282 282 282 282 283 283 283 284 284 284 284 285 285 285 285 285 286 287 288 288 289 290 291 292 292 293 293 293 293 293 293 293 293 293 294 294 294 295 296 297 298 299 299 300
279 279 279 279 279 279 279 279 280 280 280 280 280 280 280 280 281 281 281 281 281 281 281 281 281 281 281 281 281 281 281 281 281 281 281 281 281 282 282 282 282 283 283 283 283 283 284 284 284 284 285 285 285 285 285 285 286 286 287 288 288 289 290 291 292 292 293 293 293 293 293 293 293 293 293 293 293 293 294 294 296 297 298 299 299 300
279 279 279 279 279 279 279 279 280 280 280 280 280 280 280 281 281 281 281 281 281 281 281 281 281 281 281 281 281 281 281 281 281 281 281 281 281 282 282 282 282 283 283 284 284 284 285 285 285 285 286 286 285 285 285 286 286 287 288 289 289 289 290 291 292 292 293 293 293 293 293 293 293 293 293 293 293 293 293 293 294 295 297 298 300 300
279 279 279 279 279 279 279 279 280 280 280 280 280 280 280 281 281 281 281 281 281 281 281 281 281 281 281 281 281 281 281 281 280 281 281 281 282 282 282 282 282 283 283 283 284 284 285 285 286 286 286 286 286 286 286 286 287 287 288 289 290 290 291 292 292 293 293 293 293 293 292 292 292 292 292 292 293 293 293 293 293 294 296 297 299 300
Wind_Speed
33 35 34 34 35 37 38 37 36 37 38 38 37 36 36 36 36 36 36 35 35 35 34 34 35 35 35 35 36 37 38 39 39 39 38 37 37 38 40 42 43 43 42 40 39 37 37 37 38 39 39 40 41 41 42 42 42 42 42 41 41 41 41 40 39 38 37 37 37 36 35 35 35 35 36 37 37 37 36 34 33 33 33 34 35 36
33 34 34 33 34 36 38 37 36 36 37 38 37 37 36 36 36 36 35 34 33 33 33 34 34 35 36 36 37 39 40 42 43 42 39 39 39 41 42 43 42 41 40 39 38 37 38 38 39 40 41 41 42 42 42 41 41 40 40 40 40 40 40 39 38 37 37 36 36 36 35 35 35 35 36 37 37 37 36 35 33 33 33 33 34 35
34 35 35 33 33 34 37 37 36 36 36 37 37 36 36 36 35 34 32 32 32 33 34 35 36 37 38 40 40 41 41 42 41 39 38 39 40 41 41 41 40 39 39 38 38 39 40 40 40 41 41 41 41 41 40 40 39 40 40 40 40 39 39 38 37 36 36 36 35 35 35 35 35 36 36 37 37 36 35 34 33 33 33 33 33 34
33 34 35 35 35 35 36 36 37 37 36 36 36 36 35 34 33 32 32 33 34 35 35 36 37 39 40 41 41 40 40 38 37 36 37 38 39 39 39 39 39 39 39 39 40 40 41 41 41 40 40 40 40 39 39 39 39 39 40 40 39 39 38 37 36 36 36 36 36 36 36 36 36 36 36 36 36 36 35 34 34 34 34 33 33 33
32 32 34 35 36 36 36 36 36 36 35 35 34 34 34 32 32 32 33 34 34 35 36 38 39 39 40 39 38 37 36 35 35 36 37 38 38 39 39 39 39 39 40 40 40 40 40 40 39 39 39 39 39 38 38 38 39 39 39 39 39 38 37 37 36 36 36 36 36 36 36 36 35 35 35 35 35 35 35 35 35 34 34 33 33 34
33 33 34 35 35 36 36 36 36 35 34 33 33 33 33 32 31 32 34 34 35 37 38 39 39 38 37 35 34 34 33 34 35 36 37 38 38 38 38 38 38 39 39 39 39 39 39 39 39 39 39 39 38 38 38 38 39 39 39 39 39 38 37 37 37 37 36 36 36 35 35 35 35 35 35 35 35 36 35 35 35 35 34 34 35 35
34 34 34 35 36 37 36 36 34 33 33 33 32 32 31 30 31 32 34 35 37 38 39 39 38 36 35 34 33 33 34 35 36 37 37 37 37 37 37 37 37 37 38 38 38 39 39 39 39 39 39 38 38 37 38 38 39 40 40 40 39 38 38 37 37 37 36 36 36 36 35 36 36 36 36 36 36 36 36 36 35 35 35 35 36 36
34 35 35 36 37 37 35 34 32 31 30 30 29 30 31 32 33 34 36 37 37 38 38 38 37 36 35 34 34 34 35 35 36 36 36 36 36 36 36 36 36 37 37 38 38 39 39 39 38 38 38 37 37 37 38 39 40 41 41 40 39 38 38 37 36 36 36 36 36 36 35 35 36 36 36 36 37 37 36 36 36 36 36 36 36 35
34 35 37 37 37 36 34 32 30 28 27 27 28 29 33 36 37 38 38 39 39 38 37 37 37 37 37 35 35 34 34 35 35 35 35 36 36 37 37 37 37 37 37 37 38 38 37 37 37 37 36 36 37 38 40 41 42 42 41 40 39 38 37 36 35 35 34 34 34 34 35 35 35 35 35 36 36 37 37 37 37 37 36 35 35 34
34 36 38 39 37 34 30 28 26 26 27 29 31 33 35 37 38 39 40 41 41 40 38 37 37 37 37 36 34 34 34 35 36 36 37 37 37 37 37 37 37 37 37 36 36 36 36 36 35 35 36 37 38 40 42 43 43 42 41 39 38 36 35 35 34 33 33 33 33 33 33 33 33 34 34 35 35 36 37 37 37 37 36 34 33 33
34 36 39 38 33 28 24 24 26 29 31 33 34 35 35 35 36 38 40 42 42 41 40 37 36 35 35 35 34 34 35 36 37 38 38 38 37 36 35 35 35 35 35 35 35 35 35 35 35 35 37 38 41 43 44 43 42 40 38 36 35 35 34 33 33 32 32 32 32 32 32 32 33 34 34 34 34 35 35 35 35 35 34 33 31 31
35 37 37 32 26 23 24 27 30 32 34 34 35 35 36 36 35 36 37 40 41 41 40 38 36 35 34 34 34 35 36 37 38 38 38 37 36 34 33 33 33 34 35 36 37 36 35 35 35 36 38 40 43 44 43 41 38 36 35 34 34 33 32 32 32 32 32 32 32 32 32 33 33 34 34 33 33 33 33 33 33 32 31 30 30 30
36 36 33 28 26 27 30 32 33 33 33 33 33 35 36 37 36 36 36 38 39 39 38 38 37 36 35 34 33 34 35 37 38 38 36 35 33 31 31 32 34 35 36 36 36 36 37 37 37 39 40 42 42 41 38 36 35 34 33 32 31 31 31 31 31 32 32 32 32 32 33 33 34 34 34 33 32 32 32 31 31 30 29 28 28 29
35 34 31 29 30 31 31 31 32 32 33 33 33 34 36 36 36 36 36 37 37 37 36 37 38 37 36 34 34 33 34 35 36 35 34 32 30 30 30 33 35 36 36 36 37 38 39 38 39 41 42 41 40 37 35 34 33 32 31 31 31 31 31 32 32 32 32 32 32 33 34 35 35 36 35 34 33 32 31 31 30 30 29 29 30 30
33 31 29 28 28 29 29 29 30 31 32 33 34 35 36 36 36 35 35 35 36 37 36 36 37 37 36 34 32 31 32 32 32 32 33 33 33 33 33 34 35 36 36 37 38 40 39 38 39 40 41 40 38 36 35 34 33 32 32 32 32 33 33 33 33 33 33 33 34 35 36 37 38 38 37 36 34 33 33 32 32 32 32 33 33 32
30 27 26 26 27 28 29 29 30 32 34 35 35 36 36 36 36 35 35 36 36 36 36 36 36 37 36 34 31 28 27 28 30 32 34 36 37 36 34 34 35 37 37 37 37 37 37 38 38 39 39 39 37 36 34 34 34 33 33 33 34 34 35 36 36 35 35 35 36 37 38 39 38 38 37 37 36 35 35 35 35 35 36 36 36 35
26 26 27 28 29 31 31 32 32 33 35 35 35 35 35 35 35 35 34 34 35 34 33 31 31 32 34 35 32 28 27 29 32 35 36 38 38 37 34 33 34 36 37 37 37 36 35 36 37 38 37 37 36 35 34 34 34 34 34 34 35 35 35 35 36 36 36 37 38 39 39 39 38 38 37 37 36 36 36 36 37 37 38 38 38 36
28 29 30 31 32 33 34 35 35 36 36 36 36 36 35 34 34 34 34 34 33 32 32 33 32 30 31 31 33 33 31 32 35 37 38 39 39 37 34 33 33 35 36 36 35 34 34 36 36 36 36 36 35 35 35 34 35 35 35 35 35 35 36 36 37 37 38 39 40 40 40 39 38 37 37 37 37 37 37 37 38 38 38 38 38 36
31 32 32 32 34 35 35 36 35 35 35 36 36 35 35 35 34 33 33 32 32 32 33 34 34 33 32 32 35 36 35 35 36 37 36 38 38 36 34 33 33 34 34 34 34 34 35 37 37 37 36 37 36 35 34 34 34 34 35 35 36 37 37 38 38 39 39 39 39 39 39 38 38 37 37 37 37 37 37 37 38 38 38 38 37 36
34 34 33 34 34 35 36 35 34 34 35 36 36 36 36 35 33 32 31 31 32 34 34 35 35 36 35 36 38 38 36 35 36 36 35 36 36 36 34 33 32 32 33 34 34 34 36 39 39 39 38 37 35 34 32 32 33 34 36 37 38 38 38 38 38 38 38 38 38 38 38 37 37 37 37 37 37 37 37 37 37 37 36 35 35 34
34 35 35 35 34 34 34 35 35 35 35 36 36 36 34 32 32 32 33 34 36 36 36 34 35 36 36 36 37 39 38 36 35 35 35 36 36 35 33 32 32 33 34 35 36 37 38 39 39 38 36 35 33 32 33 35 36 38 38 38 38 37 37 37 36 36 36 36 36 37 37 37 37 37 37 36 36 36 36 35 35 34 33 33 33 33
35 36 36 35 35 34 35 37 37 36 36 35 34 33 32 33 34 36 37 37 37 36 36 36 36 37 38 39 40 39 37 34 32 33 34 34 35 35 33 31 31 33 34 36 37 37 37 37 37 36 34 33 33 35 37 38 39 39 38 37 37 36 36 36 36 36 35 35 36 36 36 36 36 36 35 36 36 35 35 33 32 32 31 32 32 33
34 35 36 35 35 34 35 35 35 35 34 34 34 35 35 36 36 37 37 37 36 36 37 38 39 40 40 40 39 36 33 32 31 32 32 33 33 34 32 31 31 33 34 35 35 34 34 35 35 34 33 35 37 40 40 39 39 38 37 37 36 36 36 36 35 35 35 35 35 35 34 34 34 34 34 35 34 34 33 32 31 31 32 32 33 34
33 34 34 34 33 33 33 33 34 34 34 35 36 37 37 36 36 36 37 37 39 39 39 41 41 41 39 36 33 32 32 31 31 31 31 31 32 33 33 31 31 33 35 34 34 33 34 34 34 34 35 37 39 40 40 39 38 37 36 36 35 35 35 35 35 35 35 34 34 34 34 34 34 34 34 34 34 33 33 33 33 33 34 35 35 35
31 31 31 31 31 31 32 33 34 35 35 36 36 35 35 34 35 36 38 39 40 40 40 40 39 36 34 32 31 32 33 31 30 29 29 30 32 33 33 32 32 33 34 35 34 33 33 34 35 36 38 39 40 40 40 39 37 36 35 35 35 35 35 35 35 35 35 35 35 35 35 35 35 35 35 34 34 34 35 35 35 36 36 36 36 36
29 29 30 31 32 33 34 35 35 36 35 35 34 34 34 34 35 36 38 37 37 36 36 35 34 33 32 31 32 33 33 31 29 29 29 30 32 34 34 33 32 33 34 35 34 32 34 35 36 37 38 40 40 40 39 37 35 34 33 33 33 34 34 35 35 35 36 36 36 36 36 36 36 36 35 35 35 35 35 36 36 36 36 36 36 36
30 32 33 34 35 35 36 36 35 34 34 33 32 31 31 32 34 36 36 35 35 34 34 33 33 32 32 32 32 32 32 31 29 29 30 31 32 33 33 32 31 31 33 34 34 34 35 36 37 38 38 40 40 39 37 35 33 32 32 33 33 34 34 35 36 36 37 37 37 36 36 36 36 36 35 36 36 35 35 35 35 35 35 35 35 35
33 35 35 35 35 35 35 35 34 33 33 32 32 31 30 31 32 34 34 34 35 34 34 32 32 32 32 32 33 33 33 32 31 30 30 30 30 31 30 30 29 30 32 34 35 35 34 35 36 37 37 37 36 35 34 33 32 33 33 33 34 35 35 36 37 37 37 37 36 36 36 35 36 36 36 36 36 36 36 36 36 36 35 35 35 35
36 37 36 36 35 34 34 34 34 33 33 32 32 30 29 30 31 33 34 35 35 35 34 33 32 32 33 34 35 35 33 31 29 27 26 26 27 29 30 30 30 31 33 34 36 35 33 31 30 31 31 32 32 32 33 33 34 35 36 36 36 36 36 37 37 37 36 36 35 35 35 35 35 36 36 36 36 37 37 37 37 37 37 37 36 36
37 37 36 35 35 34 34 34 34 34 34 34 32 31 30 30 32 33 34 35 34 34 33 33 33 33 34 33 33 33 32 30 26 24 25 26 28 30 31 31 31 31 32 33 33 33 32 30 28 27 28 29 31 33 34 35 37 38 39 38 38 37 37 37 36 36 35 35 35 35 35 35 35 36 36 37 37 38 38 38 38 37 38 38 38 37
37 36 36 35 35 35 34 34 34 34 34 34 33 32 32 32 32 33 33 33 33 34 33 33 33 33 33 32 30 29 31 31 29 27 27 28 30 32 32 32 32 32 31 30 29 29 30 31 30 27 28 30 32 34 35 36 37 37 37 37 37 37 37 36 35 35 35 35 35 36 36 36 36 37 38 38 39 39 38 37 36 36 36 37 38 38
36 35 34 35 35 35 34 33 33 34 34 34 34 33 32 32 32 32 32 33 33 34 34 34 34 34 34 33 31 30 31 33 32 31 30 30 31 32 32 32 32 32 32 30 30 29 28 31 32 32 32 32 33 35 35 35 35 35 35 35 35 36 36 35 35 36 37 37 38 38 38 38 38 38 37 37 36 35 33 32 32 32 33 34 36 38
35 34 34 35 35 34 34 33 33 33 33 33 33 33 33 33 33 33 33 33 33 33 34 34 34 35 35 35 35 34 34 34 34 33 31 32 33 33 33 33 33 33 33 32 31 31 31 32 35 36 35 34 33 33 34 33 33 33 33 33 35 37 38 39 39 39 39 40 40 40 39 38 36 35 33 31 29 28 27 26 26 27 29 31 34 35
35 35 35 35 34 34 34 33 33 33 33 33 33 33 33 33 33 33 33 34 34 33 33 33 34 35 36 36 36 35 34 35 35 34 32 33 34 35 35 34 33 33 32 31 31 31 32 33 34 34 34 34 34 33 32 31 31 32 32 34 36 39 41 43 43 42 41 40 39 38 37 34 32 30 28 26 25 24 23 22 21 22 24 27 30 33
36 36 35 34 33 33 33 33 33 32 32 32 32 32 32 33 33 34 34 34 34 34 34 34 35 35 35 36 36 36 36 37 36 35 35 35 36 37 36 35 34 33 33 33 32 31 30 32 33 33 33 34 34 34 32 31 31 32 34 37 39 41 43 43 42 40 39 37 36 35 33 32 30 28 27 25 23 22 21 20 20 20 21 24 27 30
35 34 33 32 32 32 32 32 32 32 32 32 32 32 33 33 34 35 35 35 34 34 34 35 35 35 35 36 37 38 39 39 38 36 35 35 36 37 37 36 34 34 34 34 34 33 32 32 33 33 33 33 33 34 34 33 33 35 37 39 41 42 42 40 38 37 36 35 34 33 32 31 30 29 27 25 23 22 21 21 20 20 20 22 24 27
33 32 32 32 32 32 33 32 32 32 32 33 33 34 34 34 35 36 36 36 36 35 35 35 35 35 35 35 35 37 38 38 37 35 33 32 33 35 37 37 35 34 35 34 35 34 34 33 33 33 32 31 31 32 34 36 37 38 40 41 41 40 39 37 35 34 33 34 34 33 32 31 31 30 28 26 24 23 22 21 20 19 19 20 23 25
31 31 32 32 32 32 32 32 33 33 32 33 34 35 36 36 36 36 36 36 36 36 35 35 35 35 34 34 35 36 36 36 35 33 31 30 30 32 35 36 36 35 35 35 35 35 34 33 32 31 31 31 33 34 36 37 37 39 41 41 40 38 36 34 33 33 33 34 34 33 32 31 31 30 28 26 24 23 22 20 19 18 18 18 20 23
31 32 32 32 32 32 32 33 33 33 33 34 36 36 36 36 36 35 35 35 35 35 35 35 35 36 35 35 35 35 35 34 33 31 30 29 28 29 31 33 34 34 33 33 33 34 34 33 31 30 31 33 35 37 39 38 38 39 40 40 38 36 34 34 33 33 33 34 34 34 33 31 29 28 27 25 24 24 23 22 19 18 17 17 18 21
32 32 32 32 33 33 32 33 33 34 34 35 36 36 36 37 36 35 35 35 35 34 35 35 36 36 36 36 36 35 34 33 31 30 29 28 28 28 28 30 31 32 32 32 32 33 33 33 33 33 34 35 37 38 39 39 38 38 37 37 36 35 35 34 34 33 33 34 34 34 32 30 28 27 26 25 24 23 22 21 19 17 16 16 17 19
33 32 32 33 34 34 34 34 34 34 34 34 35 36 36 36 35 35 35 35 35 35 35 35 36 37 37 37 36 35 33 32 31 30 29 28 27 27 26 27 28 29 30 31 31 32 33 33 34 35 36 37 37 37 37 36 35 34 33 34 35 36 36 35 34 33 33 33 32 31 30 28 26 25 24 23 21 19 17 16 14 13 13 13 14 16
32 33 33 34 34 34 34 35 35 34 34 34 35 35 36 35 35 35 35 35 35 35 35 36 36 37 38 37 36 34 32 31 30 30 29 28 26 25 25 25 26 27 28 29 30 31 32 33 34 35 35 35 34 34 34 33 32 30 31 32 34 36 37 35 33 32 32 31 29 27 26 25 23 22 21 20 18 16 13 11 9 8 8 9 10 12
32 32 33 33 33 33 34 34 34 34 34 33 34 34 35 34 34 34 35 35 35 35 35 36 37 37 37 37 35 33 32 31 30 29 28 27 25 24 24 25 25 26 26 28 29 31 31 30 30 30 29 29 29 30 31 31 30 30 30 31 32 34 35 35 32 30 29 27 25 24 22 21 20 19 18 17 17 16 14 12 10 8 6 5 5 7
32 33 34 33 33 34 33 33 33 33 33 33 34 34 34 34 34 34 34 35 36 37 37 37 37 36 35 34 33 33 33 32 31 30 28 27 25 25 25 24 24 24 24 25 26 27 27 27 26 24 23 23 24 25 27 28 30 30 31 31 31 31 33 33 31 29 27 24 22 20 19 18 17 17 17 17 18 17 16 15 13 10 7 4 2 3
31 32 32 33 33 33 34 34 33 33 34 35 35 35 34 34 35 34 34 35 36 37 37 36 35 34 32 32 33 33 33 33 32 30 29 28 27 25 24 23 22 22 22 21 21 21 22 23 22 21 20 20 21 22 25 27 29 31 32 32 32 32 31 29 27 26 25 23 21 18 16 16 16 17 18 19 20 20 19 17 16 13 10 6 3 1
31 32 32 33 34 34 33 33 34 34 34 34 34 35 34 34 35 35 35 35 36 36 35 34 33 32 31 32 32 33 33 33 32 31 30 29 27 25 22 21 21 21 20 19 18 17 18 18 19 19 19 19 20 21 23 25 28 30 32 32 31 30 28 25 23 22 22 21 20 17 16 16 17 18 20 21 22 21 20 19 17 15 12 8 4 1
32 32 32 33 34 33 33 33 33 33 33 34 34 34 34 34 35 35 35 35 35 35 34 33 32 31 31 31 31 31 31 31 31 31 31 30 27 24 22 21 20 20 19 17 16 15 15 16 16 16 17 19 20 22 24 25 27 29 31 31 30 28 25 23 21 21 20 19 18 17 16 17 19 20 21 23 24 24 23 21 18 15 12 9 6 3
32 32 32 33 33 33 33 33 32 33 34 35 35 35 34 34 35 35 35 34 34 34 33 32 32 31 31 30 30 29 29 29 30 31 31 29 26 23 22 21 21 20 18 16 14 13 13 13 13 13 14 16 19 22 25 27 28 29 30 29 27 25 23 21 21 20 19 18 17 17 18 19 20 21 23 25 26 27 26 24 20 17 14 12 10 7
32 32 32 33 33 33 33 33 33 33 34 35 35 35 35 35 34 34 34 34 33 33 32 32 31 30 30 29 29 29 28 28 29 30 29 27 24 23 22 22 23 22 19 16 13 10 9 9 9 9 11 14 18 21 25 27 29 29 29 27 24 22 21 21 21 21 20 19 19 19 20 21 22 23 25 26 28 30 30 29 26 22 18 15 12 10
32 32 32 32 33 33 33 33 33 33 34 34 35 36 36 36 35 35 34 34 33 32 31 31 30 29 29 29 29 28 28 28 29 29 28 25 23 22 22 23 24 24 22 20 17 14 12 9 8 9 12 16 19 22 24 27 29 30 28 25 22 19 19 21 22 22 21 21 22 22 23 24 25 27 28 28 29 31 32 33 32 29 24 19 15 11
32 33 32 33 33 33 33 33 33 33 34 34 35 36 37 36 36 36 35 34 33 32 31 31 30 28 27 27 28 28 27 28 28 28 26 23 21 21 21 22 24 25 25 24 23 22 20 19 16 15 16 18 21 23 24 27 29 30 28 24 20 18 20 22 22 22 23 23 24 25 26 27 28 29 29 29 29 30 32 35 37 36 32 26 20 14
Wind_Direction
296 297 299 300 300 300 300 300 300 300 300 300 300 301 301 301 301 301 301 301 300 300 299 297 296 296 296 296 296 296 296 297 296 294 291 288 289 291 294 295 296 295 293 289 287 285 285 284 285 285 286 286 287 287 287 287 287 287 286 286 287 287 286 285 284 282 281 280 279 278 277 276 274 273 271 270 271 273 273 271 269 268 267 267 268 269
297 298 298 300 300 300 299 300 300 299 299 299 300 300 301 301 301 301 302 302 302 302 301 300 299 298 297 297 296 296 296 297 296 294 291 290 291 293 294 295 295 293 291 289 287 287 286 286 286 287 287 287 287 287 287 286 287 287 287 287 287 287 286 285 283 281 280 279 278 277 277 276 275 274 272 271 271 272 272 271 270 269 269 269 269 269
299 299 299 300 300 299 299 299 299 299 298 298 299 299 299 299 300 301 303 304 304 304 303 302 301 300 298 297 297 296 296 296 295 293 292 292 293 294 294 294 293 291 290 289 288 288 288 288 288 288 288 288 287 286 286 286 287 288 288 288 288 287 286 285 283 281 279 278 277 276 276 275 274 273 271 270 270 270 269 269 268 269 269 269 269 269
298 299 299 300 300 299 298 298 299 299 298 298 297 297 298 298 300 302 304 305 306 305 304 303 301 300 298 298 297 297 297 296 295 293 293 294 294 294 294 293 292 291 290 289 289 288 287 288 288 288 288 287 286 286 286 287 288 289 289 289 288 287 286 284 282 280 278 277 276 275 274 274 273 272 271 270 269 268 268 267 267 268 269 269 269 269
297 298 299 300 299 298 297 297 298 298 298 297 296 296 298 299 302 305 306 307 306 305 304 303 302 301 299 298 298 297 297 296 295 295 295 295 295 294 293 293 292 291 290 290 289 288 288 288 287 287 287 286 286 286 287 288 289 289 290 289 288 287 285 283 281 279 277 276 275 274 274 273 273 273 273 272 269 267 267 267 267 269 270 269 269 268
298 297 298 298 297 296 297 297 298 298 297 295 295 297 300 303 305 306 307 306 306 305 305 305 304 302 300 299 298 297 297 297 296 296 296 295 294 293 293 292 292 291 291 290 289 288 288 287 287 287 286 285 285 286 287 289 289 290 290 290 288 287 284 282 280 279 278 277 276 275 274 274 274 274 274 273 270 267 266 267 268 269 270 268 266 265
298 297 297 296 295 295 296 296 296 295 294 295 298 302 305 305 305 305 305 305 306 307 307 306 305 303 301 299 298 297 297 297 297 296 295 294 293 292 292 292 292 292 291 290 289 289 288 287 287 286 285 285 285 286 288 289 289 290 290 289 288 286 283 282 280 279 278 278 277 277 276 275 275 274 273 272 270 268 268 268 268 268 267 265 262 262
298 297 296 295 295 295 294 293 292 293 295 299 303 305 306 305 305 305 305 306 307 308 307 306 304 302 300 299 298 298 298 297 297 296 295 294 293 292 292 292 292 292 292 291 290 289 288 287 286 285 285 284 285 286 288 289 289 289 289 288 287 285 283 282 280 279 279 278 278 278 277 276 275 273 272 270 269 269 269 268 267 265 263 261 260 260
295 296 296 295 293 292 292 291 292 296 302 306 306 305 305 306 306 306 307 307 307 307 306 305 303 302 300 299 298 297 297 297 296 295 295 293 292 292 291 291 291 291 292 292 290 289 287 286 285 285 284 284 285 286 288 288 289 289 288 287 285 284 282 281 280 279 278 278 277 277 276 275 274 272 270 268 267 267 266 264 262 261 260 259 259 260
296 297 297 295 292 290 290 293 299 305 309 308 306 304 304 306 307 308 307 306 306 306 305 304 302 301 300 299 298 297 297 297 296 295 294 292 291 290 290 290 290 291 291 291 290 288 287 285 285 284 285 285 286 287 288 288 289 289 288 286 285 283 282 281 280 280 279 278 278 277 276 275 273 271 269 266 264 263 262 261 260 259 259 259 259 260
298 298 297 294 291 291 295 301 307 309 309 308 306 304 304 305 306 307 306 306 305 306 305 303 301 299 298 298 298 298 298 298 297 296 295 293 291 290 289 289 290 290 291 291 290 288 287 286 285 285 285 286 287 288 289 290 291 290 289 287 286 284 283 281 280 280 279 279 278 277 276 275 273 271 268 266 265 264 263 262 261 260 260 260 260 260
300 299 297 293 294 299 305 307 308 308 308 307 307 306 305 305 305 305 304 303 304 305 304 303 301 298 297 296 296 297 298 298 297 296 295 293 292 291 290 290 291 292 293 293 292 291 289 288 287 286 287 287 289 291 292 293 293 292 290 288 286 285 283 282 281 280 280 280 279 278 277 275 273 272 271 270 269 267 266 264 263 262 261 261 260 260
299 298 295 294 298 302 305 306 307 307 307 307 306 305 305 305 305 304 302 301 301 302 302 301 300 298 297 296 295 295 296 297 296 295 293 292 291 291 292 292 293 295 295 295 294 292 291 290 289 289 289 290 292 294 296 296 295 294 292 291 289 287 285 284 283 282 281 281 280 279 278 276 276 275 274 272 271 269 268 266 264 263 263 262 263 263
296 294 292 294 297 300 303 304 305 305 305 305 304 304 304 304 304 303 302 300 300 300 300 299 298 297 297 297 296 296 295 295 295 294 293 292 292 293 295 296 296 296 296 294 293 292 291 291 291 291 292 294 296 298 299 298 297 296 295 293 291 289 287 285 283 282 281 282 281 281 280 281 281 280 278 275 272 271 270 269 267 266 267 268 268 268
293 291 292 296 299 302 304 305 305 304 304 304 304 304 304 303 303 302 302 300 299 300 300 298 297 297 297 298 298 298 297 297 295 295 295 295 295 297 298 298 297 295 294 292 291 291 292 292 291 292 295 297 299 300 299 299 297 296 294 292 290 288 286 284 282 281 281 282 282 282 283 284 284 283 280 277 275 274 273 272 271 271 271 272 272 271
295 297 301 305 306 306 306 306 305 304 304 304 304 304 303 303 302 301 301 299 299 299 300 299 298 299 300 300 301 301 301 300 299 298 298 297 296 297 297 296 295 293 292 291 291 291 292 292 293 294 295 297 298 298 297 295 294 292 291 289 288 287 286 284 282 282 281 282 282 282 283 283 282 281 280 278 276 275 274 274 273 273 273 274 273 272
305 308 310 310 309 307 307 306 305 304 304 304 304 303 302 300 300 299 298 297 297 297 297 297 298 300 302 303 303 303 303 303 301 300 297 295 295 295 296 295 293 292 292 292 291 291 291 292 293 294 295 295 295 295 295 293 292 291 289 287 286 286 286 285 284 283 283 282 282 282 282 282 281 280 278 276 275 274 274 274 273 273 274 273 272 271
311 311 310 309 307 306 306 306 305 304 305 304 304 303 301 297 296 296 297 296 296 296 297 299 299 299 300 302 302 302 303 302 300 298 296 294 294 295 296 295 293 292 291 291 290 290 290 292 293 293 294 295 295 294 293 292 290 289 288 288 287 286 286 285 284 284 283 283 282 282 282 281 280 279 277 276 275 274 273 273 272 272 272 271 271 270
310 309 308 306 306 305 304 304 304 304 305 304 303 301 298 297 296 295 296 297 298 298 299 299 299 298 298 298 299 300 302 300 298 296 294 293 294 296 297 296 294 291 290 289 289 290 291 294 296 298 298 298 296 294 292 291 290 289 289 289 288 287 286 285 285 284 283 283 282 282 281 281 279 278 277 276 275 274 273 272 271 270 269 269 269 268
307 306 305 304 304 303 303 302 302 303 303 302 301 299 296 297 298 299 300 301 301 300 299 298 297 297 297 296 297 298 300 300 297 295 294 294 295 296 297 295 293 290 289 289 289 290 293 296 299 301 301 300 297 294 292 291 291 290 289 289 288 287 286 286 285 284 284 283 283 282 281 280 279 278 277 276 274 273 271 270 269 268 267 267 267 266
305 304 303 303 302 300 299 300 302 303 304 303 301 299 298 301 303 304 304 303 301 300 298 296 295 295 296 295 295 297 299 297 296 295 295 295 294 294 295 295 293 290 289 290 291 293 295 298 299 300 300 298 296 293 291 291 290 290 289 289 288 288 287 286 286 285 285 284 283 282 281 280 279 278 277 275 274 272 271 269 267 265 265 265 265 265
302 301 302 302 301 299 298 301 303 306 307 306 305 304 304 305 304 303 302 301 299 298 297 295 294 294 295 294 294 295 296 295 295 296 296 294 292 292 294 295 293 291 290 292 293 295 296 296 296 296 295 293 291 291 291 291 291 291 290 290 290 289 288 287 287 286 285 284 284 283 282 280 279 277 276 275 273 272 271 269 266 264 264 264 264 264
300 300 301 301 300 300 300 303 305 307 307 306 305 304 303 302 301 300 300 299 298 297 296 295 295 296 295 294 294 294 294 295 295 295 294 291 290 292 294 295 294 292 290 292 293 294 294 293 293 292 291 290 291 292 292 292 292 292 292 291 290 289 288 287 286 286 285 285 284 284 283 281 279 277 275 274 273 272 272 270 268 266 266 265 265 264
300 300 301 301 301 302 302 303 303 303 303 302 301 301 300 300 299 298 298 298 298 297 297 297 297 296 295 294 293 294 295 296 296 294 291 288 288 290 294 294 293 292 292 292 293 293 292 291 290 289 290 290 291 293 294 294 293 293 293 292 291 289 288 287 286 285 285 285 285 284 283 281 279 277 275 274 273 273 272 271 270 269 268 266 265 264
302 302 302 302 302 301 301 300 300 300 300 300 301 301 300 300 299 299 299 299 299 298 298 298 296 295 294 295 295 295 296 297 296 293 289 288 288 291 293 293 292 291 291 293 294 293 292 291 291 290 290 291 292 294 295 295 295 295 294 292 290 288 287 286 286 285 286 286 285 285 283 281 279 277 276 274 273 273 272 272 271 269 268 267 265 263
304 303 302 301 300 299 299 298 299 299 300 301 301 301 301 301 301 301 301 300 299 299 298 296 295 295 295 296 296 296 297 298 297 294 290 289 290 291 292 292 291 290 290 293 294 294 293 292 291 291 290 291 293 295 296 297 297 297 296 293 290 288 287 286 286 286 286 286 285 284 283 281 279 277 276 275 274 274 273 273 272 270 269 267 265 263
306 304 303 302 301 301 301 301 302 302 302 302 302 303 303 303 302 301 299 298 298 298 297 296 295 296 296 296 296 296 297 298 297 295 293 291 288 288 290 293 293 293 293 294 294 293 293 291 291 290 290 292 294 296 297 297 297 297 296 293 290 288 287 287 287 287 286 286 285 283 282 280 278 277 276 275 274 274 274 273 272 271 269 268 266 263
309 308 307 306 305 306 306 307 307 306 306 305 305 306 305 304 301 298 297 298 299 298 297 295 294 295 295 296 296 296 297 297 296 297 296 293 288 287 291 294 295 294 295 295 294 293 292 290 290 291 292 294 295 296 297 297 297 296 294 291 290 289 287 287 287 287 286 286 285 283 281 280 278 277 276 275 274 274 274 273 272 270 269 267 265 262
311 311 311 311 311 311 312 311 311 310 310 310 309 309 307 304 300 297 297 299 299 297 295 294 294 294 294 295 296 297 297 296 298 299 300 296 291 290 293 295 296 296 296 296 297 296 293 291 291 293 294 295 296 296 296 296 296 295 293 291 290 289 289 288 287 287 287 286 285 284 282 280 279 278 276 276 275 275 274 272 271 270 268 266 263 261
313 314 314 315 315 315 314 313 312 313 313 313 312 310 308 305 301 299 300 301 299 296 295 295 295 295 295 296 297 297 298 298 299 301 301 297 294 293 295 296 296 296 297 298 299 299 297 295 295 295 296 296 295 295 295 294 294 294 294 294 293 292 292 291 290 290 289 288 287 285 283 281 280 279 278 277 276 275 273 272 270 268 267 265 262 260
315 316 315 315 315 315 314 313 313 313 314 314 313 311 309 307 305 303 302 301 299 296 295 295 295 295 295 295 295 295 297 298 299 301 300 297 294 293 295 296 296 297 297 297 298 299 300 300 300 299 298 296 295 294 294 294 295 295 295 295 295 295 295 294 293 292 291 289 288 286 284 282 281 280 279 278 277 275 273 271 268 266 264 262 260 258
316 316 315 314 315 315 314 313 313 312 312 313 312 311 309 308 306 305 303 302 300 298 296 295 295 294 294 293 291 291 292 295 298 301 300 297 294 293 295 296 296 297 297 296 294 294 296 299 300 301 299 297 296 296 296 296 297 297 296 295 294 294 295 295 295 293 292 290 289 288 286 285 285 284 283 282 280 277 274 269 265 262 259 257 256 255
316 315 315 315 316 316 315 314 313 312 312 311 310 310 309 308 307 306 305 304 302 300 298 296 295 295 294 293 291 290 290 293 297 300 301 297 295 294 296 296 296 297 297 296 294 292 291 293 297 300 300 298 297 297 297 298 298 298 297 296 295 295 295 296 296 294 293 292 292 292 292 292 292 292 291 289 286 282 277 271 264 258 255 253 253 253
317 317 317 317 316 316 315 315 313 312 312 311 310 309 309 308 308 307 307 306 304 302 300 297 296 295 294 293 292 292 292 294 298 301 301 298 296 295 297 297 297 296 297 297 296 294 292 293 295 298 299 299 299 298 297 298 298 297 296 295 295 295 297 298 298 298 298 298 298 299 300 301 301 301 299 295 292 287 282 275 267 259 253 251 250 250
318 318 318 317 316 315 315 314 313 312 311 311 310 310 310 310 309 309 308 307 306 304 302 301 299 297 295 294 293 293 294 297 301 305 304 301 299 297 297 297 297 297 297 297 297 296 294 295 296 297 298 299 300 299 298 298 298 297 296 296 296 297 299 301 302 303 304 304 305 305 307 308 308 307 304 301 297 293 288 282 275 266 257 251 248 248
318 318 317 317 316 315 314 313 313 312 312 312 312 312 312 311 311 311 310 309 308 306 305 304 303 301 299 296 294 293 296 301 306 309 309 307 304 300 297 297 298 298 297 296 296 296 296 296 297 298 298 298 298 299 300 300 299 299 299 299 300 302 304 306 307 308 309 309 310 311 313 313 312 311 309 307 304 300 295 289 282 273 263 254 247 244
317 316 316 316 315 315 314 314 313 313 312 313 313 314 314 313 313 313 313 312 311 310 309 308 307 306 304 302 300 299 301 306 310 313 313 313 309 304 300 298 298 298 296 295 296 297 297 297 298 298 298 297 297 298 301 302 302 302 302 303 304 306 308 311 314 314 314 314 315 316 317 316 315 314 313 312 309 306 300 293 285 277 268 258 248 242
316 315 315 315 315 315 315 314 314 314 314 314 314 315 315 314 314 314 314 314 314 313 310 310 310 309 307 307 307 308 310 312 314 316 318 317 314 309 303 300 299 299 299 298 298 299 298 297 297 297 298 297 297 297 299 301 303 304 305 307 309 311 313 317 319 320 319 318 319 319 320 319 318 317 316 315 314 310 305 298 289 281 272 262 251 243
316 315 315 315 315 315 315 315 315 315 316 316 316 316 316 316 316 315 315 314 314 313 312 312 312 312 311 313 314 315 316 316 318 319 320 320 317 313 307 302 300 301 303 303 303 301 298 296 295 296 298 298 298 298 299 301 302 305 308 312 315 317 319 321 322 322 322 322 322 323 323 323 323 321 320 320 318 315 312 307 301 291 282 271 258 247
316 315 315 315 316 316 316 316 316 317 317 317 317 317 318 318 317 317 316 316 315 315 315 315 314 314 315 316 317 318 319 319 320 322 322 321 320 316 311 306 303 304 305 306 305 302 299 296 295 295 295 296 297 298 300 302 304 308 310 312 314 318 324 326 326 326 327 326 326 326 327 328 327 325 324 323 321 319 316 313 307 298 287 276 265 255
316 316 316 316 318 319 319 318 318 318 318 318 318 318 318 319 318 317 318 317 317 317 317 317 317 317 318 318 319 319 320 320 322 323 323 322 321 318 313 309 307 307 307 306 304 301 298 296 295 295 295 295 296 298 300 303 308 312 313 311 313 319 326 329 330 330 330 330 330 331 332 332 331 330 329 329 329 328 326 319 311 300 286 273 263 256
317 316 317 318 319 320 320 320 320 320 319 319 319 318 319 319 319 319 319 318 318 318 319 320 319 319 318 319 319 320 320 321 323 324 324 324 322 319 315 312 311 310 309 306 303 300 297 296 295 295 296 297 298 299 302 307 313 317 316 316 318 322 326 330 334 335 333 334 335 337 338 336 335 336 339 343 347 350 350 343 332 318 299 279 265 256
317 317 318 319 320 321 321 321 322 321 321 320 319 319 320 321 321 320 319 318 318 319 320 322 321 320 318 317 318 319 321 324 326 327 326 325 323 320 317 314 313 312 311 308 304 301 300 299 299 299 301 303 303 302 304 310 316 321 322 323 322 320 318 326 335 341 340 341 343 345 344 342 342 345 353 1 8 13 15 15 12 5 347 318 285 266
319 320 320 321 322 322 322 322 322 322 322 320 319 320 322 323 324 322 320 319 320 322 323 324 323 321 318 317 317 319 323 326 329 330 329 327 324 321 319 318 318 318 317 312 308 306 305 304 304 306 308 309 308 307 309 313 318 322 326 328 326 320 316 324 333 341 344 348 350 351 350 349 351 358 8 17 22 25 26 28 30 31 31 24 349 275
320 321 322 322 323 323 323 323 323 323 322 322 322 322 322 325 326 324 321 321 322 323 324 324 323 320 317 317 319 322 324 327 330 330 329 327 325 324 325 326 327 327 325 320 315 311 309 308 309 312 315 315 313 312 314 317 321 325 329 332 332 330 330 334 340 345 349 353 355 356 357 1 6 11 17 22 27 29 31 33 36 39 45 52 64 174
322 322 322 323 323 323 323 323 324 324 323 323 323 324 325 326 327 326 325 324 324 324 325 325 323 320 318 319 321 324 325 327 329 329 328 328 329 331 334 336 338 337 335 330 323 316 311 309 310 313 315 317 319 322 325 326 327 328 333 337 338 338 340 346 353 359 2 3 2 2 7 16 20 21 22 25 28 31 34 37 39 41 47 55 67 156
323 323 323 324 324 324 324 324 324 324 324 324 325 326 327 327 327 327 327 327 326 326 326 327 325 323 321 322 323 325 325 326 327 328 329 331 334 338 342 344 345 346 346 342 335 325 316 311 311 313 315 316 320 328 337 340 338 336 337 341 343 343 347 357 9 17 18 15 12 12 18 24 27 28 28 30 31 32 34 38 42 45 48 52 56 57
324 324 324 325 324 324 324 325 325 325 325 326 327 327 328 328 328 327 327 328 329 329 328 328 327 326 325 325 326 327 327 326 326 329 331 335 338 343 346 347 349 352 355 354 348 336 323 315 314 317 323 325 327 333 342 348 348 346 346 347 348 349 355 10 23 30 31 29 27 27 30 31 30 31 32 33 32 32 34 37 41 45 47 48 51 56
326 325 325 325 325 325 324 325 326 326 326 326 326 327 328 329 330 329 329 330 331 331 330 329 328 327 326 327 329 330 329 328 329 332 335 338 341 343 347 349 350 354 359 5 7 359 344 327 324 335 349 352 349 347 349 354 355 356 355 355 355 357 6 22 34 40 41 40 41 42 43 43 42 42 40 36 33 32 33 36 39 43 46 47 48 50
327 327 326 326 326 325 325 326 327 327 327 327 327 327 329 330 332 333 333 333 333 333 332 331 331 329 328 328 330 331 331 332 333 336 339 341 342 344 346 349 351 354 359 8 16 22 27 26 20 18 22 19 12 4 358 359 2 4 3 3 5 11 22 35 43 48 48 48 48 49 50 50 50 50 47 41 37 35 35 36 38 41 44 47 49 50
328 328 328 328 327 327 327 328 328 327 328 328 328 329 330 332 333 335 336 336 335 335 334 334 334 332 330 330 332 333 333 335 337 339 341 343 344 345 347 349 351 354 357 2 8 14 20 25 29 33 38 35 30 23 13 9 8 8 8 10 16 28 39 47 52 54 54 53 52 52 52 51 51 50 48 44 40 37 35 34 36 39 43 46 50 52